GFSGBSN_sfc_temp_060.txt.gz
Temp
65 64 64 65 65 65 65 65 64 64 64 65 64 64 64 64 64 64 64 64 65 65 65 65 65 65 59 53 59 75 81 79 75 74 73 70 68 65 63 63 64 62 62 66 64 64 62
64 64 64 64 65 65 65 64 64 64 64 64 64 63 63 64 64 64 64 64 64 65 64 64 65 65 53 51 73 74 75 75 76 73 70 71 69 70 67 67 61 62 63 63 63 62 61
64 65 65 64 64 65 64 64 64 63 64 64 64 63 64 63 63 63 63 63 64 64 63 64 65 63 54 58 71 72 75 72 75 73 70 70 71 66 67 64 65 66 58 58 58 60 59
64 64 64 63 63 64 63 63 63 63 63 63 64 64 64 63 63 63 63 63 63 63 63 64 65 57 51 72 70 73 73 72 73 72 72 70 72 71 66 69 63 59 55 51 56 59 58
64 64 64 63 63 63 63 62 62 62 62 63 64 64 63 63 63 63 63 63 63 63 64 65 56 52 54 74 68 72 71 71 72 71 71 78 71 64 66 59 53 53 48 48 55 58 57
63 63 64 63 63 63 63 63 62 62 61 62 62 62 62 62 62 62 62 62 62 62 62 65 64 51 61 64 69 71 69 73 69 68 67 67 60 58 55 55 47 50 47 49 49 53 53
64 64 63 62 62 62 63 62 62 62 61 61 62 62 61 61 61 61 57 53 52 51 54 54 56 58 63 66 71 68 69 69 67 64 55 58 55 52 55 55 57 54 50 49 51 56 52
63 64 63 62 62 62 62 62 62 62 61 61 62 61 61 61 61 59 53 50 56 58 51 59 60 62 66 67 64 66 70 62 58 54 56 55 51 57 60 59 57 54 50 49 53 56 53
63 63 63 62 62 62 62 62 62 62 61 61 61 61 61 61 59 54 51 55 61 61 50 58 61 63 64 67 59 60 65 61 59 53 52 51 55 61 60 56 55 51 48 47 49 52 51
63 62 62 62 62 62 62 62 61 61 61 61 61 60 60 60 54 53 53 62 62 60 45 52 58 62 65 64 58 67 66 63 56 53 54 52 58 58 55 53 54 45 53 53 51 46 41
63 62 62 61 61 61 61 61 61 61 61 60 60 60 60 59 52 53 62 61 60 60 33 54 58 69 64 61 60 62 67 64 54 53 53 49 52 52 51 52 55 49 54 50 48 42 39
63 62 61 61 60 60 60 60 60 60 60 60 60 59 59 56 53 57 60 59 61 46 35 50 58 56 58 59 56 60 62 63 59 54 53 50 56 55 52 54 55 55 50 45 41 39 34
63 62 61 60 60 60 60 60 60 60 60 60 59 59 57 62 56 59 59 58 45 39 52 48 51 56 55 51 53 55 52 48 46 43 40 48 48 52 55 50 52 50 43 35 34 33 33
62 62 61 61 60 59 59 60 60 61 61 60 59 59 57 60 57 57 57 53 37 47 47 55 53 53 49 53 50 51 48 45 47 44 40 40 40 47 53 48 46 43 42 34 32 31 33
61 61 61 60 60 59 59 60 60 61 60 59 58 51 52 57 58 56 53 42 41 45 52 52 52 45 44 50 50 48 43 44 44 44 42 39 40 49 52 50 49 41 38 41 35 31 30
61 61 61 61 60 59 59 60 61 61 60 57 51 51 54 59 57 56 49 45 45 51 53 52 44 47 42 45 45 44 42 44 46 47 45 42 38 45 49 50 49 43 47 38 34 30 28
61 61 61 60 60 58 58 59 61 61 59 57 52 52 59 57 58 52 44 43 49 54 54 51 46 46 46 45 45 42 43 45 47 46 46 42 41 39 44 41 41 42 38 37 36 32 30
61 60 60 60 59 58 58 59 60 61 58 54 49 48 57 58 50 39 44 47 53 52 54 52 51 50 47 46 43 42 43 43 46 46 42 40 39 35 39 42 45 41 39 39 33 31 27
61 60 60 60 59 58 58 59 60 59 56 51 48 47 55 58 44 42 44 49 51 50 50 50 48 50 48 45 41 42 42 46 47 45 42 43 37 32 35 39 41 38 40 38 35 31 28
61 60 60 60 59 58 57 58 59 58 57 51 47 46 48 47 43 44 44 44 45 49 49 50 47 48 46 43 44 41 40 45 46 45 54 48 36 36 32 35 38 35 40 38 37 25 30
61 60 60 59 59 58 58 58 59 59 58 53 45 45 44 43 45 42 43 45 44 44 47 48 45 46 44 39 40 39 41 40 44 49 42 42 36 33 36 39 38 38 40 39 37 36 34
61 60 60 59 59 58 58 58 59 58 57 51 47 46 42 42 44 45 42 44 47 44 44 44 43 46 44 41 41 42 42 39 40 40 38 39 35 33 33 38 37 37 40 39 38 37 36
60 60 60 58 59 58 58 57 58 57 56 48 43 44 49 43 41 44 44 46 48 49 45 46 46 45 43 43 43 41 41 42 43 41 38 37 34 31 29 33 35 33 36 38 38 38 39
61 61 60 58 59 58 58 58 57 57 55 53 48 49 48 44 44 47 48 48 47 46 47 44 45 44 45 46 45 45 43 42 42 39 40 36 33 31 24 30 25 37 39 40 40 40 38
60 61 60 59 59 58 58 58 58 57 56 52 48 51 48 44 45 46 48 45 44 43 43 44 44 44 47 44 39 37 36 36 38 38 37 37 33 26 23 20 32 35 37 39 36 37 41
61 61 61 59 59 58 57 57 58 57 56 49 46 47 49 46 46 48 46 44 42 38 40 42 45 45 45 40 38 29 30 34 33 34 38 36 34 30 24 19 20 35 40 43 42 31 42
60 60 61 60 59 58 58 58 58 57 56 51 46 46 48 44 43 44 45 46 44 41 38 39 41 42 41 35 32 28 32 36 32 31 30 28 26 24 22 19 28 38 42 43 30 33 41
60 60 61 60 59 58 58 58 57 57 57 51 45 46 49 42 41 45 46 44 43 43 41 41 42 41 37 33 31 31 26 34 30 32 32 31 23 22 22 20 24 42 40 37 39 38 41
60 60 60 60 58 58 57 57 57 58 57 53 46 48 47 44 43 45 45 45 45 46 42 39 43 39 41 34 31 28 28 27 31 26 31 29 35 29 30 31 40 41 39 40 41 40 39

GFSGBSN_sfc_temp_063.txt.gz
Temp
65 65 65 64 64 65 65 65 65 64 65 65 65 64 64 64 64 64 64 64 65 65 65 65 65 65 61 56 60 76 80 79 76 76 75 71 69 67 67 70 71 70 68 68 68 68 66
65 64 65 65 64 64 65 65 64 64 64 64 65 64 63 63 63 63 64 64 64 65 64 64 65 65 57 52 74 76 76 74 76 76 73 71 71 71 68 69 69 68 67 67 69 67 67
64 65 65 65 64 64 64 64 63 64 64 64 64 64 63 64 63 63 63 63 64 63 63 64 64 63 55 58 74 72 75 75 76 76 72 73 72 70 70 66 69 68 66 66 66 67 66
65 65 65 64 64 65 64 63 63 63 63 64 64 64 64 63 63 63 63 63 63 63 63 64 64 59 53 70 72 71 77 76 77 77 76 74 71 70 70 69 67 64 63 60 65 65 63
64 64 65 65 64 64 64 63 63 63 63 63 63 64 64 63 63 63 63 63 63 64 64 65 58 56 55 72 70 75 77 74 74 74 75 77 72 67 68 62 60 59 57 57 61 64 63
64 64 64 64 64 64 63 63 62 62 62 62 62 63 62 62 62 62 63 62 62 62 62 64 63 52 62 66 71 73 75 75 72 69 71 70 64 62 60 60 53 55 56 56 57 61 61
64 64 64 63 64 63 63 62 62 62 62 61 61 61 61 62 62 62 57 54 53 52 54 53 56 57 63 70 72 70 72 72 71 66 61 64 61 56 59 60 62 60 57 57 59 61 60
64 64 63 63 63 63 63 62 62 62 62 61 61 61 61 61 62 60 54 51 56 59 50 58 58 60 64 66 64 67 72 66 64 58 59 58 56 60 61 60 59 58 57 56 58 60 59
64 64 63 63 63 63 62 62 62 62 61 61 62 61 61 61 60 56 52 55 62 62 50 57 58 61 64 66 62 64 68 64 60 57 57 55 59 61 61 58 57 56 55 54 55 56 57
63 63 63 62 62 62 62 61 61 61 61 61 61 61 60 60 54 53 53 62 62 60 46 53 59 63 65 64 60 69 67 65 61 55 58 59 62 60 58 57 58 52 57 57 55 52 48
63 63 62 62 61 61 61 61 61 61 61 60 60 60 60 59 53 53 61 62 62 59 35 55 58 70 63 61 62 64 67 65 57 57 59 55 56 56 56 56 58 54 56 54 52 49 49
62 63 62 61 61 60 60 60 61 60 60 60 60 59 59 57 54 56 60 60 59 45 37 51 57 56 57 58 59 63 63 64 62 57 58 56 60 59 57 56 57 55 53 48 46 45 41
62 62 62 61 61 59 60 60 61 61 60 60 59 59 58 61 54 59 59 58 45 39 53 49 52 57 55 53 55 57 54 52 52 48 49 53 53 57 58 54 56 54 49 42 41 40 40
62 62 61 61 60 60 59 59 60 60 61 60 59 59 57 59 58 57 57 53 39 47 48 55 53 54 52 55 53 54 52 48 51 50 45 46 45 52 56 54 52 50 50 43 39 38 40
62 61 61 61 60 60 59 59 60 60 60 59 57 51 51 56 57 55 56 44 43 47 53 52 54 50 49 53 52 51 48 47 48 49 48 45 46 53 54 55 54 49 46 49 41 38 39
62 61 61 61 60 59 59 59 60 60 60 57 51 50 53 58 57 56 50 46 47 52 54 54 47 50 46 48 48 48 47 48 49 50 50 48 44 49 52 54 52 52 51 45 42 38 36
62 62 61 61 60 59 58 59 60 61 59 57 51 51 58 56 57 52 45 45 50 55 55 52 49 48 48 48 47 46 46 47 50 50 50 48 47 46 50 48 47 47 45 42 44 41 40
62 61 61 60 60 58 58 58 60 60 58 54 49 48 57 57 50 40 45 48 53 53 54 52 52 51 49 48 46 45 46 47 48 49 47 47 44 42 45 48 50 49 46 45 42 38 35
62 61 61 60 60 58 58 58 59 59 56 49 48 48 56 58 46 44 46 50 51 51 50 51 49 51 51 47 44 45 45 47 48 48 46 47 42 39 43 46 48 46 46 42 40 39 35
62 61 61 60 59 58 57 58 58 58 57 51 47 46 49 48 45 47 45 46 47 50 50 51 49 51 49 45 45 43 43 46 47 48 53 50 40 42 39 43 44 43 43 43 43 38 39
61 61 61 60 60 59 58 58 58 58 57 52 45 45 44 43 46 45 46 47 46 46 49 50 48 48 47 42 43 42 43 44 46 50 46 45 41 41 42 43 43 43 44 41 41 42 42
60 61 61 61 60 59 58 58 58 58 57 50 46 45 42 42 44 45 44 45 47 46 47 46 46 47 46 44 46 43 44 43 44 44 43 42 39 41 40 41 41 40 42 42 41 42 41
60 60 60 60 60 58 58 57 57 57 56 48 43 44 49 43 41 44 45 47 48 49 46 48 48 46 44 45 46 43 43 43 45 44 41 41 38 37 37 37 39 38 41 40 42 43 43
59 60 60 60 60 58 58 58 57 57 55 50 47 47 46 44 42 45 47 48 47 46 46 45 47 46 45 46 46 47 45 43 43 40 42 39 37 36 34 37 31 43 45 45 43 44 44
59 60 60 60 60 59 58 58 58 57 56 49 47 49 47 44 44 46 48 45 45 43 43 44 45 44 46 45 41 39 39 41 40 38 39 40 37 31 32 31 37 40 41 42 42 43 44
57 59 60 60 60 59 58 58 58 57 56 50 47 49 50 47 47 49 47 46 44 41 42 43 46 47 46 41 40 34 35 38 37 37 40 38 37 36 29 26 26 41 44 48 47 38 44
57 57 59 60 60 59 58 58 58 57 56 52 50 49 51 47 44 45 45 45 45 42 39 41 43 44 44 38 36 33 36 39 36 35 34 33 31 30 30 28 34 42 45 47 38 41 44
57 58 58 60 60 59 58 58 58 57 57 52 47 47 51 42 41 45 46 44 43 43 41 42 43 42 38 37 35 35 32 36 35 36 35 34 29 29 28 27 29 43 44 41 44 44 45
57 57 57 59 60 59 58 58 58 58 57 53 45 46 47 44 43 44 45 45 45 45 42 39 44 40 42 36 35 31 32 31 33 32 36 34 38 35 35 36 43 43 44 45 44 44 44

GFSGBSN_sfc_temp_069.txt.gz
Temp
66 66 65 65 66 66 65 65 65 65 65 65 65 65 65 65 64 64 64 65 65 65 66 65 65 65 69 68 70 90 81 81 84 85 84 83 81 79 76 80 83 78 82 82 84 82 84
66 66 66 65 66 65 65 65 65 65 65 64 65 65 65 65 64 64 64 64 65 65 65 64 65 64 67 58 85 91 87 86 87 85 85 85 84 85 79 78 76 81 81 80 81 81 81
66 66 65 66 66 66 66 65 65 64 64 64 64 65 65 64 64 64 64 64 64 64 64 64 65 69 65 65 87 89 86 85 87 86 84 88 89 81 81 75 77 78 74 76 78 79 78
65 66 66 66 66 66 65 64 64 64 63 64 64 64 64 64 64 63 64 63 63 63 64 65 65 69 61 82 88 83 86 85 89 89 88 90 89 83 78 80 75 72 73 66 74 75 75
65 65 65 65 65 65 65 65 64 63 63 63 64 63 64 64 63 63 63 63 63 64 65 65 66 68 62 82 77 84 86 82 86 87 88 88 85 80 77 71 69 71 65 64 65 75 74
65 64 65 65 65 65 65 65 64 63 63 63 63 62 62 63 63 62 62 62 65 65 68 72 72 62 69 73 82 85 89 87 82 82 79 79 78 73 75 70 60 65 64 67 64 68 72
64 64 64 64 64 65 64 64 64 63 62 62 62 62 62 62 62 62 63 72 66 63 67 64 67 65 73 79 84 82 87 83 82 78 69 76 69 65 72 75 76 72 70 66 65 70 67
64 63 63 63 63 63 63 63 63 63 62 62 62 62 61 61 61 60 64 65 68 69 58 72 69 71 75 78 72 80 85 75 73 68 75 70 64 75 78 76 73 71 68 67 69 68 66
64 64 63 63 63 63 62 63 63 62 62 62 62 61 61 61 61 62 67 68 76 73 60 67 71 70 73 74 73 75 79 77 72 69 70 67 71 75 72 70 69 69 67 66 64 65 65
64 64 63 63 62 62 62 62 62 62 62 62 61 61 61 61 58 72 67 75 76 73 52 61 65 72 74 74 68 78 81 76 74 69 69 71 71 70 69 68 70 64 71 66 66 61 56
64 64 63 62 62 61 61 61 61 62 61 61 61 61 60 60 66 65 72 75 74 67 41 64 67 80 75 69 72 72 80 76 69 71 72 66 67 66 64 68 72 66 70 68 66 64 63
63 63 63 62 62 62 61 60 61 61 61 61 61 61 61 64 65 66 71 70 69 49 43 58 67 66 67 68 70 71 73 77 76 70 71 69 73 71 68 66 69 70 67 66 65 64 53
63 63 62 62 62 61 61 60 60 61 61 61 60 60 61 72 71 72 70 69 55 48 63 57 59 65 66 61 66 69 67 66 65 59 60 66 66 67 71 64 67 67 64 55 53 51 53
63 62 62 62 62 61 61 61 60 60 61 61 59 59 64 70 77 74 67 61 47 58 54 64 62 63 59 61 64 65 64 62 66 66 65 59 53 64 67 66 65 64 65 58 47 52 57
63 62 62 62 62 61 61 60 60 60 60 60 59 67 70 76 75 72 63 56 56 57 62 60 60 55 53 60 63 64 64 64 64 65 62 62 55 64 65 67 66 62 58 64 59 61 54
63 62 62 62 61 61 60 60 60 60 60 59 69 72 74 78 76 69 63 56 62 64 61 61 54 58 50 58 58 58 61 60 60 63 67 66 55 62 61 66 65 63 66 56 59 48 47
63 63 62 62 61 60 60 60 60 60 60 58 66 67 72 77 76 68 59 64 64 66 64 61 59 60 60 55 58 56 60 59 62 63 66 66 64 56 61 60 61 59 60 60 59 58 51
63 63 62 62 61 60 60 60 60 59 58 55 69 62 74 77 64 70 65 66 56 66 67 65 64 63 61 59 61 61 59 60 60 62 61 64 64 56 58 61 63 63 63 63 55 53 57
63 63 63 62 61 59 59 59 59 58 55 64 65 69 75 75 61 66 70 65 65 63 64 64 62 63 65 62 57 60 58 56 59 60 61 64 61 53 52 57 60 58 62 63 61 58 52
62 62 62 62 61 60 59 59 58 58 57 62 66 62 68 69 72 66 66 66 64 63 63 64 63 64 62 60 62 57 56 56 57 60 55 59 61 58 53 54 62 56 58 60 60 53 56
61 61 62 62 61 60 60 59 59 58 58 62 65 64 66 63 66 67 68 66 63 61 64 65 63 62 62 58 59 58 58 55 57 56 60 61 57 59 58 58 57 58 58 58 56 59 54
61 61 61 61 61 60 60 59 58 58 57 61 60 64 67 67 66 66 61 63 63 65 64 62 60 63 63 60 61 58 60 61 60 58 60 60 56 57 55 56 55 53 57 58 58 58 58
61 61 61 60 60 60 59 59 58 57 56 61 68 70 64 60 66 64 65 64 64 67 62 62 63 62 60 59 62 63 64 64 63 61 59 59 57 54 52 54 54 51 57 58 58 59 58
61 60 60 60 60 60 59 59 58 57 56 66 67 66 63 59 64 64 64 63 64 64 62 61 64 63 59 67 68 67 65 63 62 59 61 57 57 55 50 52 42 53 59 60 58 59 60
60 60 60 60 60 59 59 60 59 58 56 60 64 62 62 59 67 66 64 63 62 61 60 60 59 62 66 62 60 55 56 56 55 56 57 59 59 51 46 48 56 54 54 55 54 56 62
60 60 60 60 60 59 59 59 59 58 57 60 61 65 59 59 62 67 64 64 62 62 58 56 60 67 63 63 60 50 50 56 50 50 55 55 58 54 49 39 38 54 57 60 59 50 60
59 59 60 60 59 58 58 58 59 58 57 59 62 65 59 56 66 64 62 61 67 65 62 58 56 56 61 60 54 51 53 57 50 50 47 51 51 47 48 43 52 59 59 60 47 51 60
59 59 59 59 59 58 57 55 56 58 57 58 60 66 60 58 64 59 61 61 61 64 60 61 58 58 58 55 56 56 53 57 54 56 52 50 47 46 50 43 40 60 56 52 57 59 60
59 59 59 59 58 58 57 56 55 58 57 56 57 65 65 58 59 59 59 59 57 58 62 62 62 62 66 61 59 57 52 53 54 51 55 48 58 55 53 53 59 61 59 59 60 59 59

GFSGBSN_sfc_temp_072.txt.gz
Temp
66 66 66 66 66 66 66 66 65 65 65 65 65 65 65 65 65 65 65 65 65 65 65 65 65 65 65 63 64 82 82 84 83 80 78 78 77 76 69 74 75 69 73 79 82 77 81
66 66 66 65 66 66 66 65 65 65 65 65 64 65 65 65 64 64 64 64 64 65 64 64 65 65 62 52 79 85 86 85 84 79 78 81 79 82 77 75 72 76 75 77 77 78 80
66 66 66 66 66 66 66 66 65 64 64 64 64 64 65 64 64 64 64 64 64 64 64 64 65 66 60 58 79 81 81 82 85 83 78 84 85 81 79 73 77 75 68 69 70 72 74
66 65 65 65 66 66 65 65 65 64 64 64 64 64 64 64 64 63 63 63 63 63 63 64 65 64 55 76 81 80 81 79 83 86 84 86 87 81 78 78 74 67 66 58 66 70 69
65 65 65 65 65 65 66 65 64 64 64 64 64 63 63 64 63 63 63 63 63 63 64 65 63 63 57 79 74 79 81 77 82 84 84 88 83 75 75 67 62 63 55 58 63 70 67
65 64 64 65 64 65 65 65 64 64 63 63 64 62 62 62 63 62 62 62 64 65 68 70 69 59 66 70 78 81 83 81 79 79 77 76 73 68 67 63 52 58 59 61 60 64 64
64 64 64 64 64 64 64 64 63 63 63 62 62 62 62 62 62 62 62 67 66 59 63 61 64 62 68 77 82 79 85 80 79 75 64 70 62 59 65 67 69 69 64 61 61 67 62
64 64 64 64 63 63 63 63 63 63 63 62 62 62 61 61 61 60 61 62 67 67 55 68 69 68 73 76 67 77 84 72 70 63 68 63 58 69 73 73 70 70 65 60 61 66 63
64 64 64 64 63 63 62 62 62 62 62 62 62 61 61 61 60 60 63 66 74 72 56 64 72 70 72 75 68 73 77 73 67 63 64 60 67 74 73 70 68 67 63 63 62 63 63
64 64 64 63 63 62 62 61 61 61 61 62 61 61 61 61 57 70 67 75 75 73 47 59 65 70 74 74 68 80 79 73 70 63 65 67 70 70 68 65 67 60 70 67 65 58 50
64 64 63 63 63 62 61 61 61 61 61 61 61 60 60 60 60 63 67 71 72 66 38 64 66 80 76 68 68 71 78 71 63 67 67 63 62 63 64 64 70 62 67 62 62 57 55
63 64 63 62 62 62 61 60 60 61 60 60 61 60 60 63 63 67 71 71 66 46 41 58 67 65 64 68 69 72 70 74 73 67 64 66 73 68 67 67 68 68 63 62 59 55 44
63 63 62 62 62 62 61 61 61 61 61 60 60 60 60 68 67 74 73 64 47 39 61 55 59 64 64 62 65 66 64 62 58 54 55 62 63 66 68 59 64 63 56 44 41 41 42
63 63 62 62 62 61 61 61 60 60 60 60 60 59 61 65 72 72 68 57 42 55 55 59 62 62 56 60 63 63 62 57 64 59 57 52 48 60 66 62 58 58 56 47 39 41 45
63 63 62 62 62 61 61 61 60 60 60 59 59 63 61 71 72 71 60 51 53 56 62 57 53 52 49 57 61 62 60 59 59 61 52 52 52 63 65 66 62 58 50 58 51 52 45
63 63 62 62 61 61 60 61 60 60 60 59 61 63 68 79 76 68 58 53 60 64 62 59 44 51 42 52 57 57 58 60 60 62 62 60 49 61 61 64 62 59 61 49 50 40 37
63 63 62 62 61 60 60 60 60 60 60 58 60 60 71 76 74 63 53 60 65 68 64 60 58 53 54 55 56 56 58 58 61 61 60 60 58 52 58 55 55 54 53 54 52 50 40
63 63 63 62 61 60 60 60 60 59 58 57 61 56 72 75 58 63 61 64 57 67 66 63 62 62 59 57 51 54 58 57 59 60 58 58 54 50 53 58 61 58 56 57 45 44 47
62 62 62 62 61 60 59 59 59 58 55 64 59 62 73 71 53 60 67 67 66 64 64 64 62 63 64 59 54 58 58 56 58 58 53 55 53 45 45 50 54 52 57 57 55 49 43
62 62 62 62 61 60 59 59 59 58 57 62 59 56 63 65 64 60 60 63 64 63 63 65 63 63 61 58 60 56 56 56 57 59 56 54 54 51 43 48 54 50 55 56 52 41 45
61 61 61 61 61 60 60 60 59 58 58 62 60 57 64 56 60 62 64 64 62 61 63 64 61 61 59 56 57 56 56 54 57 56 57 55 50 54 54 55 56 54 55 54 50 51 43
61 61 61 61 60 60 60 60 59 58 57 60 57 59 60 56 64 62 60 61 61 64 64 62 58 62 60 56 55 53 57 57 55 55 54 56 49 51 50 55 53 51 54 54 54 54 52
61 61 60 61 60 59 60 59 58 57 55 60 65 65 60 54 57 59 60 63 63 66 63 64 61 60 58 57 60 59 60 59 59 55 53 53 50 47 42 51 51 45 51 53 54 54 51
60 60 60 60 60 59 59 59 59 57 55 60 64 61 55 51 56 58 64 65 61 63 61 62 62 59 57 63 63 62 60 60 59 56 56 52 51 46 38 45 33 47 54 55 55 56 54
60 60 60 60 60 59 59 59 59 58 56 58 61 59 55 50 57 59 63 63 63 59 59 60 59 60 62 59 54 50 49 51 52 54 53 53 51 41 36 37 47 47 51 50 48 49 55
60 60 60 60 60 59 58 58 59 59 57 57 60 62 57 50 52 62 58 63 57 56 54 55 59 62 59 54 52 42 40 51 45 47 52 53 52 45 40 32 30 46 53 56 53 38 53
59 59 60 60 59 59 58 58 58 58 57 57 59 63 57 49 56 60 56 55 63 61 55 55 55 54 57 52 46 43 47 54 45 46 42 44 43 37 39 34 42 52 54 54 36 41 53
59 59 59 59 59 59 59 57 56 55 56 55 57 63 57 52 55 60 60 56 58 59 54 55 54 54 51 47 47 48 45 49 48 50 46 43 38 37 40 33 32 54 51 44 49 51 54
59 59 59 59 59 58 58 58 58 57 56 54 52 63 64 53 55 59 61 61 58 58 53 57 56 57 57 52 52 49 45 46 47 42 49 40 49 43 43 42 52 54 50 52 54 53 50

GFSGBSN_sfc_temp_075.txt.gz
Temp
67 66 66 66 66 66 66 66 65 65 65 65 65 65 65 65 65 65 64 64 65 65 65 65 65 65 61 54 57 75 78 78 79 76 72 70 67 66 62 66 68 65 65 69 75 73 72
67 66 66 66 65 66 66 66 65 65 64 64 64 64 65 65 64 64 64 64 64 65 64 64 65 65 57 47 70 74 76 75 79 74 71 71 70 73 68 68 64 68 67 68 71 70 70
66 66 66 66 66 66 66 65 65 65 64 64 64 64 64 64 64 64 64 64 64 64 64 64 64 64 55 52 71 72 74 71 74 75 70 74 74 69 70 66 72 69 64 65 65 67 65
66 65 65 65 65 65 66 66 65 64 65 64 64 64 63 63 63 63 63 63 63 63 63 64 64 59 49 69 70 70 73 71 76 77 75 77 77 72 70 72 67 62 60 53 62 65 65
65 65 65 65 65 65 65 64 64 63 64 64 63 64 63 63 63 63 63 63 63 64 64 65 59 54 49 73 67 72 72 69 74 75 75 83 75 68 70 62 55 55 48 52 57 65 63
65 65 64 64 64 64 65 65 63 62 63 63 63 62 62 62 62 62 62 62 63 63 64 66 65 52 59 63 72 75 72 74 69 70 69 68 65 59 58 53 46 48 50 53 53 60 61
65 64 64 64 64 63 64 63 63 63 62 62 62 62 61 61 62 61 59 56 57 53 55 55 58 57 64 71 76 71 74 71 69 65 55 62 54 50 55 59 61 59 55 54 55 62 58
64 64 64 64 63 63 63 62 62 62 62 62 62 61 61 61 61 60 56 54 59 60 50 62 63 64 68 70 62 68 75 63 61 55 60 55 50 60 64 64 62 60 55 51 55 62 58
64 64 64 64 63 63 62 62 61 61 62 62 62 61 61 61 60 56 56 60 66 65 49 58 66 64 66 70 61 65 70 63 58 56 55 50 58 65 62 63 60 59 54 50 53 55 60
64 64 64 63 63 63 62 61 61 61 61 61 61 60 61 60 55 59 60 66 66 64 40 54 61 66 71 66 61 74 72 64 61 56 55 53 61 63 60 60 63 54 63 62 57 51 44
64 64 63 63 62 62 61 61 60 60 60 60 60 60 60 60 51 53 63 64 65 58 33 60 62 75 70 64 64 66 71 67 56 56 55 53 56 57 58 60 60 55 61 59 57 51 47
63 64 63 62 62 62 61 61 60 60 60 60 60 60 59 57 54 58 63 63 59 44 36 55 64 61 61 61 63 66 66 68 63 57 58 58 63 60 59 61 62 62 57 54 51 47 38
63 63 62 62 62 61 61 61 61 61 60 60 59 60 58 62 54 61 63 56 41 37 58 52 54 60 57 55 59 60 61 55 49 44 47 56 56 60 60 54 57 56 47 37 36 35 36
63 63 62 62 61 61 61 61 61 60 60 59 59 59 59 61 59 60 55 46 34 52 51 59 55 56 50 56 57 57 54 52 56 53 46 45 43 55 60 54 52 50 48 38 34 33 39
64 63 62 62 61 61 61 60 60 60 60 59 58 53 54 59 61 57 48 38 43 50 58 54 53 48 46 53 55 53 52 52 53 53 45 44 45 57 59 59 57 51 46 53 45 45 38
63 63 62 62 61 60 60 60 60 60 59 58 50 51 55 65 64 56 44 44 51 58 57 55 46 49 44 47 49 51 51 56 56 59 57 50 42 54 57 59 57 52 56 45 42 35 32
62 62 63 63 61 60 60 60 60 60 59 58 49 49 61 67 63 50 39 46 57 62 61 56 51 49 49 48 50 49 52 54 55 56 57 53 49 46 52 49 49 50 47 48 47 43 36
62 62 62 62 61 60 59 60 60 59 57 53 49 45 61 64 48 47 44 55 58 61 60 58 57 56 50 51 48 49 53 54 56 55 52 55 47 41 46 52 55 51 49 49 39 40 41
62 62 62 62 61 60 59 59 59 58 55 50 46 48 59 60 42 44 52 57 61 59 59 57 55 58 58 55 49 52 52 54 56 55 51 51 46 38 41 46 49 46 51 52 48 41 38
62 61 61 61 60 60 59 59 58 58 57 50 46 43 49 51 49 47 49 52 54 59 58 58 56 57 53 54 57 51 50 53 53 55 57 52 46 43 38 41 46 43 49 50 46 35 37
61 61 61 61 60 60 60 59 59 58 57 51 46 44 48 42 46 47 49 53 53 54 56 57 54 55 53 48 51 51 50 50 53 56 53 49 43 46 47 50 50 49 50 49 46 45 39
61 61 61 61 60 59 60 59 59 58 56 48 43 44 47 44 48 46 48 50 53 56 56 54 52 56 53 48 48 48 51 48 47 49 47 50 43 45 44 50 49 47 50 49 48 48 46
61 60 60 61 60 59 59 59 58 57 54 47 49 51 48 44 43 43 47 52 54 55 55 57 53 51 53 52 52 51 52 52 52 50 48 47 43 40 36 47 46 40 46 48 49 50 50
61 60 60 60 60 59 59 59 58 57 55 48 47 48 42 41 45 48 53 54 53 55 51 54 53 49 52 57 57 54 52 53 53 50 51 47 45 40 31 40 30 45 49 50 50 52 49
60 60 60 60 60 59 58 59 59 58 56 49 49 46 43 38 46 49 51 51 52 54 52 52 52 53 53 52 47 44 43 45 47 49 48 47 44 36 32 31 41 44 48 46 45 44 52
60 60 60 60 60 59 58 58 58 58 57 50 49 49 50 40 41 51 46 49 47 44 47 49 52 54 53 48 46 35 35 43 40 43 48 49 46 40 34 28 28 43 48 52 49 35 49
60 60 60 60 59 59 59 58 58 58 57 52 49 52 47 43 46 49 44 46 51 46 44 45 46 47 50 43 40 35 40 48 39 39 36 38 36 32 31 26 36 47 49 50 35 37 49
59 59 60 59 59 59 59 58 57 56 57 53 51 52 49 45 47 52 53 47 48 46 43 47 46 46 42 40 39 40 37 43 41 43 40 37 30 30 32 27 30 49 47 43 45 46 50
59 59 59 59 59 59 58 58 57 56 56 55 49 54 54 48 47 52 55 55 54 53 47 46 47 48 48 42 42 42 40 39 40 35 43 36 42 37 37 37 47 48 47 48 49 48 47